This is the latest recevied weather packets stored in our database for station/object N4AR. If no packets are shown the sender has not sent any weather packets the latest 10 day(s).
| Time | Temp. | Humidity | Pressure | Rain* | Wind** | Luminosity | Snow |
|---|---|---|---|---|---|---|---|
| 1777643032 | 13.89° C | 55% | 1016.4 hPa | 0 mm | - | 442 W/m² | - |
| 1777642729 | 13.33° C | 56% | 1016.6 hPa | 0 mm | - | 439 W/m² | - |
| 1777642426 | 12.78° C | 56% | 1016.5 hPa | 0 mm | - | 310 W/m² | - |
| 1777642122 | 12.78° C | 56% | 1016.6 hPa | 0 mm | - | 195 W/m² | - |
| 1777641818 | 12.78° C | 56% | 1016.4 hPa | 0 mm | - | 174 W/m² | - |
| 1777641513 | 12.78° C | 57% | 1016.5 hPa | 0 mm | - | 207 W/m² | - |
| 1777641208 | 12.78° C | 59% | 1016.5 hPa | 0 mm | - | 168 W/m² | - |
| 1777640906 | 12.22° C | 59% | 1016.6 hPa | 0 mm | - | 217 W/m² | - |
| 1777640603 | 12.22° C | 61% | 1016.5 hPa | 0 mm | - | 127 W/m² | - |
| 1777640299 | 12.22° C | 60% | 1016.7 hPa | 0 mm | - | 138 W/m² | - |
| 1777639995 | 12.22° C | 61% | 1016.6 hPa | 0 mm | - | 146 W/m² | - |
| 1777639692 | 12.22° C | 61% | 1016.7 hPa | 0 mm | - | 182 W/m² | - |
| 1777639391 | 12.22° C | 62% | 1016.8 hPa | 0 mm | - | 169 W/m² | - |
| 1777639090 | 12.22° C | 61% | 1016.6 hPa | 0 mm | - | 171 W/m² | - |
| 1777638788 | 12.22° C | 64% | 1016.8 hPa | 0 mm | - | 149 W/m² | - |
| 1777638483 | 11.67° C | 66% | 1016.5 hPa | 0 mm | - | 125 W/m² | - |
| 1777638181 | 11.67° C | 68% | 1016.6 hPa | 0 mm | - | 104 W/m² | - |
| 1777637875 | 11.67° C | 68% | 1016.4 hPa | 0 mm | - | 100 W/m² | - |
| 1777637573 | 11.67° C | 69% | 1016.5 hPa | 0 mm | - | 85 W/m² | - |
| 1777637270 | 11.67° C | 69% | 1016.7 hPa | 0 mm | - | 89 W/m² | - |
| 1777636967 | 11.11° C | 69% | 1016.4 hPa | 0 mm | - | 80 W/m² | - |
| 1777636662 | 11.11° C | 70% | 1016.6 hPa | 0 mm | - | 74 W/m² | - |
| 1777636359 | 11.11° C | 69% | 1016.5 hPa | 0 mm | - | 71 W/m² | - |
| 1777636058 | 11.11° C | 70% | 1016.4 hPa | 0 mm | - | 73 W/m² | - |
| 1777635755 | 11.11° C | 70% | 1016.5 hPa | 0 mm | - | 64 W/m² | - |
* Rain latest hour (hover to see other rain measurements)
** Current wind speed in m/s (hover to see current wind gust speed)